Wind_Speed
32 31 32 34 35 34 30 27 25 23 23 23 22 21 19 20 19 17 15 16 18 19 18 21 24 25 26 25 22 19 17 16 16 16 16 15 14 13 13 14 14 15 16 17
32 29 31 32 32 30 27 25 23 21 21 22 21 19 19 21 19 16 14 16 18 20 20 21 23 24 25 23 21 19 18 17 17 16 15 16 16 15 15 15 16 17 17 19
31 29 29 30 28 27 26 23 21 20 21 23 23 19 20 20 18 14 13 14 16 19 20 21 22 23 23 22 21 20 20 19 19 18 18 17 17 17 17 17 17 18 19 21
27 26 26 27 27 24 23 23 22 21 22 22 23 20 19 21 18 13 12 12 14 17 20 22 22 23 22 21 20 21 21 22 21 20 19 17 18 18 18 17 17 18 21 23
19 21 23 23 24 25 23 22 23 22 23 22 22 22 18 20 17 15 13 13 15 18 21 23 24 24 22 21 21 22 23 23 23 22 20 19 18 18 17 16 17 19 22 25
13 16 18 17 19 22 23 23 22 22 22 21 21 23 19 20 18 17 14 16 19 20 21 22 24 24 23 22 23 23 24 24 23 23 22 21 20 19 17 16 16 18 22 25
17 17 17 17 18 20 21 21 21 21 22 20 21 23 20 20 20 18 17 18 21 22 23 23 22 23 23 23 23 23 22 21 21 21 21 21 21 20 18 16 15 17 21 25
20 20 20 20 21 21 22 21 21 21 22 22 22 22 20 21 21 21 20 20 22 24 26 26 25 24 23 21 21 19 19 19 19 19 19 20 20 19 18 18 18 18 20 24
23 23 23 22 22 23 22 22 22 24 25 26 25 24 23 23 23 23 22 22 24 25 26 26 25 25 21 17 16 15 15 16 17 17 18 18 18 18 18 18 18 19 21 24
22 23 24 23 23 22 21 21 22 25 26 27 25 23 24 25 25 24 22 23 24 23 23 23 23 22 18 15 13 14 15 16 16 16 17 17 17 17 18 18 18 19 21 24
19 20 21 22 22 22 21 21 23 25 26 26 25 23 23 25 26 25 23 24 25 23 22 21 20 19 17 15 14 14 15 16 16 16 17 17 17 18 18 18 19 19 21 24
21 19 19 21 23 23 24 23 24 24 25 26 27 25 20 24 26 25 24 25 26 25 22 21 20 18 16 15 15 15 16 17 17 17 18 18 19 19 18 18 19 21 22 25
23 23 22 22 24 26 27 26 26 25 26 28 28 25 21 23 25 24 24 25 26 27 23 22 22 20 18 17 17 18 18 19 19 20 20 19 20 19 19 19 18 20 20 22
26 27 26 25 24 26 29 29 29 29 29 29 28 26 24 24 23 23 25 27 27 27 24 23 23 21 21 21 21 21 22 23 24 24 23 22 21 20 19 18 19 19 20 21
28 28 28 26 24 26 29 30 30 30 31 31 30 29 27 27 27 28 29 28 27 26 23 21 21 21 22 22 24 25 27 28 27 26 26 24 23 22 21 20 19 19 19 21
28 28 26 23 21 25 27 26 28 30 32 32 32 30 28 30 31 31 29 27 25 23 19 17 18 19 20 22 24 27 29 29 28 27 27 26 25 25 24 23 21 21 20 20
26 25 25 23 24 27 24 21 27 30 31 33 35 32 31 33 32 28 25 24 22 19 17 16 16 17 19 22 25 27 28 28 27 26 26 26 26 27 27 26 25 24 23 22
26 26 26 26 26 27 22 27 31 33 33 34 34 32 30 28 24 21 19 18 17 16 15 16 17 20 23 25 27 28 27 26 26 25 26 26 26 27 27 27 27 27 26 25
27 26 25 25 25 24 24 26 27 25 23 23 23 21 18 16 14 13 12 13 15 16 17 20 23 26 27 28 28 27 25 25 25 24 24 24 25 26 27 28 28 28 28 27
23 22 22 22 22 21 15 13 11 10 9 8 8 8 8 9 8 9 11 14 17 20 22 24 26 27 28 28 27 25 24 24 24 24 24 25 26 28 29 30 30 30 29 29
21 20 20 19 17 10 7 6 5 3 2 0 1 2 3 4 7 10 14 17 20 21 22 23 24 25 25 24 23 23 23 24 24 26 27 27 28 29 30 31 32 32 31 30
23 20 18 16 10 14 14 9 5 2 1 2 3 4 5 7 10 13 15 18 19 20 20 20 21 21 21 20 21 22 23 24 25 25 26 27 28 29 30 31 32 32 31 30
25 22 18 15 14 19 16 12 6 1 4 5 6 6 8 9 10 11 14 16 18 19 18 18 18 18 18 19 20 22 23 23 23 23 24 25 26 27 29 30 31 31 30 28
28 26 22 18 20 22 18 12 6 2 6 7 8 9 9 9 9 10 13 15 16 16 15 15 16 17 18 19 21 21 20 19 20 21 21 21 21 23 24 25 26 26 26 25
31 29 26 24 22 23 20 15 9 4 5 8 9 9 9 10 10 12 13 14 14 13 13 14 15 16 17 19 19 19 17 17 17 17 16 16 16 15 14 15 16 18 20 21
32 31 28 26 24 23 21 18 12 7 5 8 9 9 9 10 11 12 13 12 12 11 11 12 12 13 16 17 17 16 15 15 15 15 14 13 13 10 5 3 8 12 15 17
Wind_Direction
244 249 250 247 246 244 247 252 257 261 263 266 273 283 286 281 281 286 296 298 301 309 321 321 321 319 317 313 304 294 289 291 296 294 300 292 299 296 292 280 266 257 252 237
246 248 247 247 243 241 245 251 253 252 260 267 274 279 277 278 281 289 293 295 304 313 321 318 315 313 311 307 299 290 288 292 298 294 297 297 295 290 288 278 262 255 249 235
244 245 248 243 238 241 245 246 245 249 260 269 274 271 269 274 279 283 285 296 310 314 311 309 307 306 304 298 292 288 287 290 293 292 293 293 292 290 288 280 260 249 241 231
242 242 244 243 239 239 240 243 248 256 264 269 271 268 266 274 278 280 287 302 307 303 302 303 303 300 296 291 288 287 287 289 290 289 288 289 290 290 288 283 259 244 234 225
235 238 239 239 239 241 244 248 255 259 263 264 265 268 266 277 283 283 289 297 299 301 305 304 302 297 290 285 284 286 287 287 287 287 286 286 288 290 291 282 258 239 230 223
232 236 238 240 242 246 250 253 255 257 260 260 259 267 269 276 276 279 289 296 301 306 306 302 299 295 290 285 284 286 286 285 283 282 283 283 286 288 287 280 254 237 225 220
237 240 243 239 241 244 247 249 250 252 254 252 255 263 268 270 276 284 293 295 299 306 306 302 298 297 294 291 289 287 286 284 282 281 281 281 282 284 283 276 257 236 226 220
231 234 240 243 242 240 244 247 247 250 251 249 249 254 261 265 274 283 289 292 300 306 305 301 296 295 295 291 288 287 286 284 283 282 281 280 278 279 277 271 260 246 236 225
227 224 229 233 236 236 238 241 243 245 249 251 249 251 257 266 273 280 286 293 297 298 299 294 290 291 290 286 287 288 287 285 283 281 280 278 276 274 269 265 257 248 240 231
230 226 224 228 231 233 238 240 241 243 247 252 255 259 263 267 272 278 283 288 292 293 297 292 285 284 283 281 286 292 293 290 285 281 277 275 273 271 265 260 255 251 242 238
241 236 229 229 231 238 242 247 250 251 253 256 260 262 265 267 270 274 280 287 292 297 302 299 288 280 277 277 286 294 298 296 291 284 277 274 272 270 267 259 252 250 247 242
250 249 246 242 241 245 251 255 258 259 261 262 264 264 260 262 267 273 281 287 292 297 303 302 295 284 277 278 286 294 298 299 295 288 281 276 272 271 268 262 256 253 255 247
254 255 254 250 248 250 253 256 260 261 261 262 266 271 267 261 266 273 282 290 295 299 301 299 294 287 280 279 284 292 298 300 297 292 286 281 276 273 268 264 260 256 255 247
253 254 256 256 254 253 253 255 256 259 260 262 264 268 271 271 270 277 284 290 295 297 298 294 289 284 280 279 284 291 295 296 295 293 289 284 281 278 273 267 262 259 256 252
255 255 257 257 257 257 258 259 260 262 264 265 268 270 274 277 277 281 287 291 293 294 294 288 282 279 280 282 286 290 292 292 291 290 288 284 281 280 278 274 269 263 258 257
255 257 258 256 261 263 260 262 265 264 265 266 268 269 272 272 274 278 284 287 288 288 285 278 276 280 286 289 291 290 289 288 287 285 283 281 279 278 277 275 270 265 261 258
253 253 255 260 264 264 264 269 265 263 264 267 268 271 269 269 271 276 278 280 282 281 276 272 277 286 292 293 292 290 287 286 284 282 280 278 275 274 273 272 269 266 263 259
249 253 259 265 265 267 273 272 272 272 270 268 270 270 268 266 266 268 272 276 278 278 276 278 286 292 295 296 295 293 290 286 283 279 277 274 271 269 267 266 265 264 263 260
249 255 262 266 270 278 281 278 274 271 267 264 264 262 259 258 259 260 268 278 284 287 288 291 294 297 298 299 298 295 291 287 283 280 276 273 271 269 267 265 264 263 261 259
245 250 258 266 276 287 281 267 259 253 247 247 247 247 245 246 251 263 278 287 290 292 292 294 295 297 298 299 298 295 291 287 284 282 279 276 273 270 268 266 264 263 261 258
231 239 253 266 273 259 202 181 161 144 175 175 208 233 245 265 276 282 287 289 291 292 294 296 297 298 299 299 297 295 292 290 287 286 283 280 275 271 267 264 262 260 258 254
223 233 246 255 232 167 158 152 130 94 11 340 316 301 292 288 289 290 291 293 296 299 302 303 301 300 300 300 300 300 298 296 294 291 287 283 278 273 268 263 260 257 254 252
224 229 236 230 189 163 161 156 149 223 299 302 298 293 292 293 295 295 297 301 304 306 307 305 302 303 304 305 307 307 306 303 301 299 294 289 283 277 270 263 256 252 249 247
221 224 228 218 178 169 168 162 156 267 299 302 303 305 308 313 313 309 309 310 310 309 307 306 306 307 310 313 316 317 315 313 311 309 305 300 293 284 274 263 253 245 238 234
221 223 227 219 195 182 178 171 169 189 281 290 294 300 307 314 314 314 316 316 313 310 309 310 311 315 320 325 328 327 325 325 325 325 324 322 317 306 285 259 241 229 221 218
221 224 223 213 201 194 187 185 184 194 237 273 286 292 299 304 307 313 318 319 317 317 319 319 321 328 333 334 333 333 335 338 343 346 347 347 348 346 333 231 203 202 201 203
Height
5848 5851 5852 5853 5855 5857 5858 5860 5862 5862 5862 5862 5862 5861 5860 5859 5859 5858 5857 5855 5853 5852 5850 5848 5846 5844 5842 5839 5837 5835 5833 5832 5830 5829 5827 5827 5826 5826 5826 5826 5827 5828 5829 5830
5844 5846 5847 5848 5850 5851 5853 5855 5856 5858 5857 5857 5857 5857 5855 5855 5855 5854 5853 5850 5848 5846 5844 5843 5841 5839 5837 5835 5833 5831 5829 5828 5827 5825 5824 5823 5823 5822 5822 5822 5822 5822 5824 5826
5838 5841 5842 5843 5845 5846 5848 5850 5851 5852 5852 5851 5851 5852 5851 5850 5850 5851 5849 5846 5844 5842 5840 5838 5836 5834 5832 5831 5829 5827 5825 5824 5822 5821 5820 5820 5819 5819 5818 5817 5817 5817 5819 5820
5833 5835 5837 5838 5840 5841 5844 5845 5845 5846 5846 5846 5846 5846 5846 5845 5846 5846 5844 5842 5840 5839 5836 5833 5831 5829 5828 5826 5825 5823 5821 5820 5818 5817 5816 5816 5815 5814 5813 5812 5811 5812 5813 5815
5829 5830 5831 5834 5836 5837 5839 5840 5840 5840 5840 5841 5840 5840 5841 5840 5841 5841 5839 5838 5837 5834 5831 5827 5825 5824 5823 5821 5820 5818 5816 5814 5813 5812 5811 5811 5810 5809 5808 5806 5806 5807 5808 5809
5824 5825 5827 5830 5831 5832 5833 5834 5834 5834 5834 5836 5834 5834 5836 5835 5836 5835 5834 5833 5831 5829 5826 5823 5820 5818 5816 5816 5814 5813 5811 5809 5807 5806 5806 5805 5804 5803 5803 5802 5801 5802 5802 5804
5820 5822 5823 5825 5826 5827 5828 5829 5829 5829 5829 5830 5829 5828 5830 5829 5828 5828 5828 5827 5825 5823 5821 5818 5815 5812 5811 5809 5808 5806 5804 5802 5801 5800 5800 5799 5799 5798 5798 5797 5797 5797 5798 5799
5815 5817 5818 5820 5821 5822 5822 5823 5824 5825 5824 5824 5823 5823 5824 5823 5822 5822 5822 5821 5819 5817 5815 5812 5810 5808 5806 5804 5802 5800 5799 5797 5796 5795 5794 5793 5793 5792 5792 5792 5792 5793 5794 5795
5808 5811 5812 5814 5815 5816 5816 5817 5817 5818 5817 5817 5817 5818 5818 5817 5816 5816 5816 5815 5814 5813 5810 5808 5805 5803 5801 5800 5798 5796 5794 5792 5791 5790 5789 5788 5788 5787 5787 5787 5788 5788 5790 5791
5802 5805 5807 5807 5809 5810 5811 5811 5811 5811 5811 5811 5812 5812 5812 5811 5811 5810 5811 5810 5809 5807 5805 5802 5800 5798 5796 5795 5793 5791 5789 5788 5786 5785 5784 5783 5782 5782 5782 5782 5783 5783 5785 5786
5798 5801 5802 5803 5804 5805 5806 5806 5805 5805 5806 5806 5806 5809 5807 5806 5805 5805 5805 5804 5802 5800 5798 5796 5794 5793 5791 5790 5789 5787 5785 5783 5781 5780 5779 5778 5777 5777 5776 5777 5777 5778 5780 5781
5793 5795 5796 5797 5798 5798 5798 5799 5799 5800 5799 5799 5799 5803 5801 5800 5799 5799 5798 5797 5795 5793 5792 5790 5788 5787 5786 5785 5783 5782 5780 5779 5777 5776 5775 5774 5772 5772 5771 5771 5772 5773 5774 5775
5788 5789 5790 5792 5794 5793 5793 5793 5793 5793 5793 5792 5793 5797 5795 5794 5794 5793 5793 5791 5789 5787 5786 5785 5782 5781 5780 5779 5778 5777 5776 5774 5773 5772 5770 5769 5768 5767 5766 5766 5766 5767 5768 5769
5781 5782 5784 5785 5785 5785 5785 5786 5786 5786 5786 5785 5786 5788 5788 5787 5788 5787 5786 5785 5783 5781 5781 5779 5777 5775 5774 5773 5772 5771 5770 5769 5767 5766 5765 5764 5763 5762 5761 5761 5761 5762 5763 5764
5774 5775 5775 5776 5778 5778 5778 5779 5780 5780 5779 5779 5780 5780 5782 5781 5781 5780 5779 5778 5777 5776 5774 5772 5770 5769 5768 5768 5767 5766 5764 5763 5761 5760 5758 5757 5756 5756 5755 5755 5755 5756 5756 5758
5767 5768 5768 5770 5771 5771 5771 5773 5773 5772 5772 5772 5772 5774 5776 5775 5774 5773 5773 5772 5770 5769 5767 5766 5764 5763 5763 5762 5761 5759 5757 5756 5755 5753 5751 5750 5749 5748 5748 5747 5748 5749 5749 5751
5760 5761 5763 5764 5765 5763 5766 5768 5765 5763 5764 5764 5763 5767 5767 5766 5766 5766 5766 5765 5764 5762 5761 5760 5759 5759 5758 5756 5755 5752 5750 5748 5747 5746 5744 5743 5741 5740 5740 5740 5740 5741 5742 5743
5754 5755 5756 5757 5758 5757 5763 5759 5756 5755 5755 5754 5754 5756 5757 5757 5759 5760 5759 5759 5758 5757 5756 5755 5755 5754 5752 5750 5748 5745 5742 5740 5739 5738 5736 5735 5734 5732 5732 5732 5732 5733 5734 5736
5747 5749 5750 5751 5750 5751 5753 5749 5747 5745 5745 5746 5746 5748 5750 5752 5753 5755 5755 5754 5753 5752 5751 5750 5749 5747 5745 5742 5739 5737 5734 5732 5731 5729 5728 5726 5725 5724 5723 5723 5723 5724 5726 5727
5741 5743 5745 5744 5743 5744 5746 5743 5741 5742 5742 5743 5744 5746 5748 5750 5751 5752 5752 5751 5749 5748 5747 5745 5743 5740 5738 5735 5732 5729 5727 5725 5723 5721 5720 5718 5717 5715 5715 5714 5714 5715 5717 5719
5734 5736 5738 5738 5737 5738 5741 5741 5742 5743 5744 5744 5745 5746 5747 5748 5749 5749 5748 5747 5746 5744 5742 5740 5737 5734 5731 5728 5725 5722 5720 5717 5715 5713 5711 5709 5707 5706 5705 5704 5704 5705 5707 5709
5728 5730 5732 5733 5733 5737 5738 5739 5742 5744 5744 5745 5745 5745 5746 5746 5747 5746 5745 5743 5741 5739 5737 5734 5731 5728 5725 5722 5719 5716 5712 5709 5706 5703 5701 5698 5696 5694 5693 5693 5693 5694 5696 5699
5722 5725 5726 5728 5731 5732 5734 5736 5738 5742 5744 5744 5744 5744 5745 5745 5744 5743 5741 5739 5736 5734 5732 5729 5726 5723 5720 5717 5714 5710 5706 5702 5698 5695 5691 5688 5685 5683 5682 5681 5682 5684 5687 5690
5715 5717 5720 5723 5725 5727 5730 5733 5735 5739 5741 5742 5742 5742 5741 5741 5741 5739 5737 5735 5732 5730 5727 5725 5722 5719 5716 5712 5708 5704 5699 5695 5691 5687 5683 5680 5676 5673 5670 5669 5671 5674 5678 5682
5708 5711 5714 5718 5721 5723 5726 5728 5731 5734 5738 5739 5739 5739 5739 5738 5738 5736 5734 5731 5729 5726 5724 5721 5718 5715 5711 5707 5703 5699 5695 5691 5687 5682 5678 5673 5669 5664 5661 5661 5663 5667 5671 5676
5701 5703 5707 5711 5715 5718 5722 5725 5726 5729 5732 5735 5736 5736 5737 5736 5735 5734 5731 5728 5726 5723 5721 5718 5716 5712 5709 5704 5700 5696 5692 5688 5683 5679 5675 5671 5666 5662 5659 5659 5661 5664 5669 5673